Time,TemperatureF,DewpointF,PressureIn,WindDirection,WindDirectionDegrees,WindSpeedMPH,WindSpeedGustMPH,Humidity,HourlyPrecipIn,Conditions,Clouds,dailyrainin,SoftwareType,DateUTC
2013-02-05 00:01:00,34.5,14.3,29.91,ESE,121,0.0,0.0,43,0.00,-RA,OVC,0.00,WeatherDisplay:10.37,2013-02-05 07:01:00,
2013-02-05 00:06:00,35.2,14.4,29.91,ESE,121,1.1,1.1,42,0.00,-RA,OVC,0.00,WeatherDisplay:10.37,2013-02-05 07:06:00,
2013-02-05 00:11:00,35.4,14.6,29.91,ESE,121,2.0,2.0,42,0.00,-RA,OVC,0.00,WeatherDisplay:10.37,2013-02-05 07:11:00,
2013-02-05 00:16:00,35.8,14.9,29.94,ESE,121,3.5,3.5,42,0.00,-RA,OVC,0.00,WeatherDisplay:10.37,2013-02-05 07:16:00,
2013-02-05 00:21:00,35.3,14.5,29.94,ESE,121,0.0,0.0,42,0.00,-RA,OVC,0.00,WeatherDisplay:10.37,2013-02-05 07:21:00,
2013-02-05 00:26:00,34.8,14.5,29.94,ESE,121,0.0,0.0,43,0.00,-RA,OVC,0.00,WeatherDisplay:10.37,2013-02-05 07:26:00,
2013-02-05 00:31:00,34.4,14.7,29.94,ESE,121,2.3,2.3,44,0.00,-RA,OVC,0.00,WeatherDisplay:10.37,2013-02-05 07:31:00,
2013-02-05 00:36:00,33.9,14.8,29.94,ESE,121,3.5,3.5,45,0.00,-RA,OVC,0.00,WeatherDisplay:10.37,2013-02-05 07:36:00,
2013-02-05 00:41:00,33.6,15.0,29.94,ESE,121,0.0,0.0,46,0.00,-RA,OVC,0.00,WeatherDisplay:10.37,2013-02-05 07:41:00,
2013-02-05 00:46:00,33.3,15.2,29.94,ESE,121,0.0,0.0,47,0.00,-RA,OVC,0.00,WeatherDisplay:10.37,2013-02-05 07:46:00,
2013-02-05 00:51:00,33.0,14.4,29.94,ESE,121,3.5,3.5,46,0.00,-RA,OVC,0.00,WeatherDisplay:10.37,2013-02-05 07:51:00,
2013-02-05 00:56:00,33.0,14.4,29.94,ESE,121,0.0,0.0,46,0.00,-RA,OVC,0.00,WeatherDisplay:10.37,2013-02-05 07:56:00,
2013-02-05 01:01:00,32.8,14.8,29.94,ESE,121,2.3,2.3,47,0.00,-RA,OVC,0.00,WeatherDisplay:10.37,2013-02-05 08:01:00,
2013-02-05 01:06:00,32.8,14.8,29.94,ESE,121,0.0,0.0,47,0.00,-RA,OVC,0.00,WeatherDisplay:10.37,2013-02-05 08:06:00,
2013-02-05 01:11:00,32.7,14.7,29.94,ESE,121,1.1,1.1,47,0.00,-RA,OVC,0.00,WeatherDisplay:10.37,2013-02-05 08:11:00,
2013-02-05 01:16:00,32.5,15.0,29.94,ESE,121,2.3,2.3,48,0.00,-RA,OVC,0.00,WeatherDisplay:10.37,2013-02-05 08:16:00,
2013-02-05 01:21:00,31.9,14.9,29.94,ESE,120,2.3,2.3,49,0.00,-RA,OVC,0.00,WeatherDisplay:10.37,2013-02-05 08:21:00,
2013-02-05 01:26:00,31.4,15.3,29.94,ESE,120,2.3,2.3,51,0.00,-RA,OVC,0.00,WeatherDisplay:10.37,2013-02-05 08:26:00,
2013-02-05 01:31:00,31.1,15.1,29.94,ESE,120,2.3,2.3,51,0.00,-RA,OVC,0.00,WeatherDisplay:10.37,2013-02-05 08:31:00,
2013-02-05 01:36:00,31.0,15.4,29.94,ESE,120,2.3,2.3,52,0.00,-RA,OVC,0.00,WeatherDisplay:10.37,2013-02-05 08:36:00,
2013-02-05 01:41:00,30.8,15.7,29.94,ESE,120,1.1,1.1,53,0.00,-RA,OVC,0.00,WeatherDisplay:10.37,2013-02-05 08:41:00,
2013-02-05 01:46:00,30.7,15.6,29.94,ESE,120,0.0,0.0,53,0.00,-RA,OVC,0.00,WeatherDisplay:10.37,2013-02-05 08:46:00,
2013-02-05 01:51:00,30.6,15.5,29.94,ESE,120,2.3,2.3,53,0.00,-RA,OVC,0.00,WeatherDisplay:10.37,2013-02-05 08:51:00,
2013-02-05 01:56:00,30.8,15.7,29.94,ESE,120,2.3,0.0,53,0.00,-RA,OVC,0.00,WeatherDisplay:10.37,2013-02-05 08:56:00,
2013-02-05 02:01:00,31.0,15.4,29.94,ESE,121,2.3,2.3,52,0.00,-RA,OVC,0.00,WeatherDisplay:10.37,2013-02-05 09:01:00,
2013-02-05 02:06:00,31.5,15.4,29.94,ESE,121,0.0,0.0,51,0.00,-RA,OVC,0.00,WeatherDisplay:10.37,2013-02-05 09:06:00,
2013-02-05 02:11:00,32.5,15.9,29.94,SE,124,0.0,0.0,50,0.00,-RA,OVC,0.00,WeatherDisplay:10.37,2013-02-05 09:11:00,
2013-02-05 02:16:00,33.4,15.8,29.94,SE,127,3.5,3.5,48,0.00,-RA,OVC,0.00,WeatherDisplay:10.37,2013-02-05 09:16:00,
2013-02-05 02:21:00,34.8,16.1,29.94,SE,132,0.0,0.0,46,0.00,-RA,OVC,0.00,WeatherDisplay:10.37,2013-02-05 09:21:00,
2013-02-05 02:26:00,36.0,16.2,29.94,SSW,192,3.5,3.5,44,0.00,-RA,OVC,0.00,WeatherDisplay:10.37,2013-02-05 09:26:00,
2013-02-05 02:31:00,36.2,16.4,29.94,SW,223,3.5,3.5,44,0.00,-RA,OVC,0.00,WeatherDisplay:10.37,2013-02-05 09:31:00,
2013-02-05 02:36:00,36.7,16.3,29.94,SW,215,3.5,3.5,43,0.00,-RA,OVC,0.00,WeatherDisplay:10.37,2013-02-05 09:36:00,
2013-02-05 02:41:00,38.0,16.9,29.94,SSW,192,5.8,5.8,42,0.00,-RA,OVC,0.00,WeatherDisplay:10.37,2013-02-05 09:41:00,
2013-02-05 02:46:00,39.4,16.5,29.94,SSW,193,3.5,3.5,39,0.00,-RA,OVC,0.00,WeatherDisplay:10.37,2013-02-05 09:46:00,
2013-02-05 02:51:00,40.2,16.6,29.94,SSW,196,3.5,3.5,38,0.00,-RA,OVC,0.00,WeatherDisplay:10.37,2013-02-05 09:51:00,
2013-02-05 02:56:00,39.4,16.5,29.94,SW,223,3.5,3.5,39,0.00,-RA,OVC,0.00,WeatherDisplay:10.37,2013-02-05 09:56:00,
2013-02-05 03:01:00,39.3,16.4,29.94,SSE,166,3.5,3.5,39,0.00,-RA,OVC,0.00,WeatherDisplay:10.37,2013-02-05 10:01:00,
2013-02-05 03:06:00,40.4,16.8,29.94,ESE,123,16.1,16.1,38,0.00,-RA,OVC,0.00,WeatherDisplay:10.37,2013-02-05 10:06:00,
2013-02-05 03:11:00,41.3,16.3,29.94,ESE,121,3.5,3.5,36,0.00,-RA,OVC,0.00,WeatherDisplay:10.37,2013-02-05 10:11:00,
2013-02-05 03:16:00,40.3,16.1,29.94,West,264,6.9,6.9,37,0.00,-RA,OVC,0.00,WeatherDisplay:10.37,2013-02-05 10:16:00,
2013-02-05 03:21:00,40.0,16.4,29.94,SE,126,4.6,4.6,38,0.00,-RA,OVC,0.00,WeatherDisplay:10.37,2013-02-05 10:21:00,
2013-02-05 03:26:00,41.9,16.9,29.94,ESE,114,10.4,10.4,36,0.00,-RA,OVC,0.00,WeatherDisplay:10.37,2013-02-05 10:26:00,
2013-02-05 03:31:00,43.9,16.6,29.94,SE,132,10.4,10.4,33,0.00,-RA,OVC,0.00,WeatherDisplay:10.37,2013-02-05 10:31:00,
2013-02-05 03:36:00,45.1,17.0,29.94,South,174,13.8,13.8,32,0.00,-RA,OVC,0.00,WeatherDisplay:10.37,2013-02-05 10:36:00,
2013-02-05 03:41:00,45.4,16.5,29.94,SE,126,15.0,15.0,31,0.00,-RA,OVC,0.00,WeatherDisplay:10.37,2013-02-05 10:41:00,
2013-02-05 03:46:00,45.6,15.9,29.94,ESE,118,11.5,11.5,30,0.00,-RA,OVC,0.00,WeatherDisplay:10.37,2013-02-05 10:46:00,
2013-02-05 03:51:00,45.6,15.9,29.94,SE,134,9.2,9.2,30,0.00,-RA,OVC,0.00,WeatherDisplay:10.37,2013-02-05 10:51:00,
2013-02-05 03:56:00,45.9,16.2,29.94,SE,142,11.5,11.5,30,0.00,-RA,OVC,0.00,WeatherDisplay:10.37,2013-02-05 10:56:00,
2013-02-05 04:01:00,45.9,15.4,29.94,SE,128,12.7,12.7,29,0.00,-RA,OVC,0.00,WeatherDisplay:10.37,2013-02-05 11:01:00,
2013-02-05 04:06:00,46.0,15.5,29.94,ESE,119,3.5,3.5,29,0.00,-RA,OVC,0.00,WeatherDisplay:10.37,2013-02-05 11:06:00,
2013-02-05 04:11:00,44.8,16.0,29.94,NNE,25,3.5,3.5,31,0.00,-RA,OVC,0.00,WeatherDisplay:10.37,2013-02-05 11:11:00,
2013-02-05 04:16:00,43.7,15.0,29.94,SE,130,11.5,11.5,31,0.00,-RA,OVC,0.00,WeatherDisplay:10.37,2013-02-05 11:16:00,
2013-02-05 04:21:00,44.3,15.5,29.94,South,182,6.9,6.9,31,0.00,-RA,OVC,0.00,WeatherDisplay:10.37,2013-02-05 11:21:00,
2013-02-05 04:26:00,44.9,15.3,29.94,SSE,148,10.0,10.0,30,0.00,-RA,OVC,0.00,WeatherDisplay:10.37,2013-02-05 11:26:00,
2013-02-05 04:31:00,45.3,15.6,29.94,ESE,115,9.2,9.2,30,0.00,-RA,OVC,0.00,WeatherDisplay:10.37,2013-02-05 11:31:00,
2013-02-05 04:36:00,45.4,15.7,29.94,South,179,9.2,9.2,30,0.00,-RA,OVC,0.00,WeatherDisplay:10.37,2013-02-05 11:36:00,
2013-02-05 04:41:00,45.4,15.7,29.94,ESE,123,10.4,10.4,30,0.00,-RA,OVC,0.00,WeatherDisplay:10.37,2013-02-05 11:41:00,
2013-02-05 04:46:00,45.4,15.7,29.94,SE,130,11.5,11.5,30,0.00,-RA,OVC,0.00,WeatherDisplay:10.37,2013-02-05 11:46:00,
2013-02-05 04:51:00,45.3,15.6,29.94,ESE,117,11.0,11.0,30,0.00,-RA,OVC,0.00,WeatherDisplay:10.37,2013-02-05 11:51:00,
2013-02-05 04:56:00,45.3,15.6,29.94,SE,126,3.5,3.5,30,0.00,-RA,OVC,0.00,WeatherDisplay:10.37,2013-02-05 11:56:00,
2013-02-05 05:01:00,44.4,15.6,29.94,North,355,4.6,4.6,31,0.00,-RA,OVC,0.00,WeatherDisplay:10.37,2013-02-05 12:01:00,
2013-02-05 05:06:00,42.6,15.5,29.94,North,355,3.5,3.5,33,0.00,-RA,OVC,0.00,WeatherDisplay:10.37,2013-02-05 12:06:00,
2013-02-05 05:11:00,41.0,15.4,29.94,North,355,3.5,3.5,35,0.00,-RA,OVC,0.00,WeatherDisplay:10.37,2013-02-05 12:11:00,
2013-02-05 05:16:00,39.7,15.5,29.94,North,355,3.5,3.5,37,0.00,-RA,OVC,0.00,WeatherDisplay:10.37,2013-02-05 12:16:00,
2013-02-05 05:21:00,38.6,15.1,29.94,North,355,0.0,0.0,38,0.00,-RA,OVC,0.00,WeatherDisplay:10.37,2013-02-05 12:21:00,
2013-02-05 05:26:00,37.7,15.5,29.94,North,355,2.3,2.3,40,0.00,-RA,OVC,0.00,WeatherDisplay:10.37,2013-02-05 12:26:00,
2013-02-05 05:31:00,36.9,15.4,29.94,North,355,1.1,1.1,41,0.00,-RA,OVC,0.00,WeatherDisplay:10.37,2013-02-05 12:31:00,
2013-02-05 05:36:00,36.0,15.1,29.94,North,355,0.0,0.0,42,0.00,-RA,OVC,0.00,WeatherDisplay:10.37,2013-02-05 12:36:00,
2013-02-05 05:41:00,35.1,15.3,29.94,East,85,3.5,3.5,44,0.00,-RA,OVC,0.00,WeatherDisplay:10.37,2013-02-05 12:41:00,
2013-02-05 05:46:00,34.6,15.4,29.94,East,84,2.3,2.3,45,0.00,-RA,OVC,0.00,WeatherDisplay:10.37,2013-02-05 12:46:00,
2013-02-05 05:51:00,34.4,15.2,29.94,SE,126,4.0,4.0,45,0.00,-RA,OVC,0.00,WeatherDisplay:10.37,2013-02-05 12:51:00,
2013-02-05 05:56:00,34.6,15.4,29.94,South,169,3.5,3.5,45,0.00,-RA,OVC,0.00,WeatherDisplay:10.37,2013-02-05 12:56:00,
2013-02-05 06:01:00,34.5,15.3,29.94,South,169,0.0,0.0,45,0.00,-RA,OVC,0.00,WeatherDisplay:10.37,2013-02-05 13:01:00,
2013-02-05 06:06:00,34.3,15.6,29.94,South,169,3.5,3.5,46,0.00,-RA,OVC,0.00,WeatherDisplay:10.37,2013-02-05 13:06:00,
2013-02-05 06:11:00,34.1,15.5,29.94,South,169,0.0,0.0,46,0.00,-RA,OVC,0.00,WeatherDisplay:10.37,2013-02-05 13:11:00,
2013-02-05 06:16:00,33.8,15.2,29.94,South,169,0.0,0.0,46,0.00,-RA,OVC,0.00,WeatherDisplay:10.37,2013-02-05 13:16:00,
2013-02-05 06:21:00,33.5,15.4,29.94,South,169,0.0,0.0,47,0.00,-RA,OVC,0.00,WeatherDisplay:10.37,2013-02-05 13:21:00,
2013-02-05 06:26:00,33.2,15.6,29.94,South,169,1.1,0.0,48,0.00,-RA,OVC,0.00,WeatherDisplay:10.37,2013-02-05 13:26:00,
2013-02-05 06:31:00,33.0,15.4,29.94,South,169,0.0,0.0,48,0.00,-RA,OVC,0.00,WeatherDisplay:10.37,2013-02-05 13:31:00,
2013-02-05 06:36:00,32.7,15.6,29.97,South,169,1.1,0.0,49,0.00,-RA,OVC,0.00,WeatherDisplay:10.37,2013-02-05 13:36:00,
2013-02-05 06:41:00,32.2,15.6,29.97,South,169,2.3,2.3,50,0.00,-RA,OVC,0.00,WeatherDisplay:10.37,2013-02-05 13:41:00,
2013-02-05 06:46:00,31.6,15.5,29.98,South,169,0.0,0.0,51,0.00,-RA,OVC,0.00,WeatherDisplay:10.37,2013-02-05 13:46:00,
2013-02-05 06:51:00,31.3,15.7,29.98,South,169,1.1,1.1,52,0.00,-RA,OVC,0.00,WeatherDisplay:10.37,2013-02-05 13:51:00,
2013-02-05 06:56:00,30.8,15.7,29.98,South,169,0.0,0.0,53,0.00,-RA,OVC,0.00,WeatherDisplay:10.37,2013-02-05 13:56:00,
2013-02-05 07:01:00,30.2,15.1,29.98,South,169,2.3,0.0,53,0.00,-RA,OVC,0.00,WeatherDisplay:10.37,2013-02-05 14:01:00,
2013-02-05 07:06:00,29.9,15.7,29.98,South,169,0.0,0.0,55,0.00,-RA,OVC,0.00,WeatherDisplay:10.37,2013-02-05 14:06:00,
2013-02-05 07:11:00,29.9,15.3,29.98,South,169,0.0,0.0,54,0.00,-RA,OVC,0.00,WeatherDisplay:10.37,2013-02-05 14:11:00,
2013-02-05 07:16:00,30.0,15.3,29.98,South,169,0.0,0.0,54,0.00,-RA,OVC,0.00,WeatherDisplay:10.37,2013-02-05 14:16:00,
2013-02-05 07:21:00,30.4,15.7,29.98,South,169,0.0,0.0,54,0.00,-RA,OVC,0.00,WeatherDisplay:10.37,2013-02-05 14:21:00,
2013-02-05 07:26:00,30.5,16.2,29.98,South,169,0.0,0.0,55,0.00,-RA,OVC,0.00,WeatherDisplay:10.37,2013-02-05 14:26:00,
2013-02-05 07:31:00,30.6,15.9,29.98,South,169,0.0,0.0,54,0.00,-RA,OVC,0.00,WeatherDisplay:10.37,2013-02-05 14:31:00,
2013-02-05 07:36:00,30.6,16.3,29.98,South,169,0.0,0.0,55,0.00,-RA,OVC,0.00,WeatherDisplay:10.37,2013-02-05 14:36:00,
2013-02-05 07:41:00,30.6,16.3,29.98,South,169,3.5,3.5,55,0.00,-RA,OVC,0.00,WeatherDisplay:10.37,2013-02-05 14:41:00,
2013-02-05 07:46:00,31.0,15.8,30.01,SE,134,3.5,3.5,53,0.00,-RA,OVC,0.00,WeatherDisplay:10.37,2013-02-05 14:46:00,
2013-02-05 07:51:00,31.6,16.0,30.01,SE,134,2.3,2.3,52,0.00,-RA,OVC,0.00,WeatherDisplay:10.37,2013-02-05 14:51:00,
2013-02-05 07:56:00,32.3,16.2,30.01,SE,134,2.3,0.0,51,0.00,-RA,OVC,0.00,WeatherDisplay:10.37,2013-02-05 14:56:00,
2013-02-05 08:01:00,32.8,16.2,30.01,SE,134,1.1,0.0,50,0.00,-RA,OVC,0.00,WeatherDisplay:10.37,2013-02-05 15:01:00,
2013-02-05 08:06:00,33.2,16.1,30.01,SE,134,0.0,0.0,49,0.00,-RA,OVC,0.00,WeatherDisplay:10.37,2013-02-05 15:06:00,
2013-02-05 08:11:00,33.8,16.6,30.01,SE,134,0.0,0.0,49,0.00,-RA,OVC,0.00,WeatherDisplay:10.37,2013-02-05 15:11:00,
2013-02-05 08:16:00,34.7,17.0,30.01,SE,134,0.0,0.0,48,0.00,-RA,OVC,0.00,WeatherDisplay:10.37,2013-02-05 15:16:00,
2013-02-05 08:21:00,35.6,17.8,30.01,SE,134,0.0,0.0,48,0.00,-RA,OVC,0.00,WeatherDisplay:10.37,2013-02-05 15:21:00,
2013-02-05 08:26:00,36.8,17.4,30.01,SE,134,0.0,0.0,45,0.00,-RA,OVC,0.00,WeatherDisplay:10.37,2013-02-05 15:26:00,
2013-02-05 08:31:00,38.3,18.8,30.01,SE,134,1.1,0.0,45,0.00,-RA,OVC,0.00,WeatherDisplay:10.37,2013-02-05 15:31:00,
2013-02-05 08:36:00,40.1,18.3,30.01,North,5,3.5,3.5,41,0.00,-RA,OVC,0.00,WeatherDisplay:10.37,2013-02-05 15:36:00,
2013-02-05 08:41:00,40.8,17.1,30.01,NNW,333,4.6,4.6,38,0.00,-RA,OVC,0.00,WeatherDisplay:10.37,2013-02-05 15:41:00,
2013-02-05 08:46:00,41.0,16.0,30.01,NNW,340,3.5,3.5,36,0.00,-RA,OVC,0.00,WeatherDisplay:10.37,2013-02-05 15:46:00,
2013-02-05 08:51:00,41.3,16.3,30.01,NNW,340,0.0,0.0,36,0.00,-RA,OVC,0.00,WeatherDisplay:10.37,2013-02-05 15:51:00,
2013-02-05 08:56:00,41.9,16.2,30.01,NNW,340,3.5,3.5,35,0.00,-RA,OVC,0.00,WeatherDisplay:10.37,2013-02-05 15:56:00,
2013-02-05 09:01:00,42.2,16.5,30.01,NNW,340,0.0,0.0,35,0.00,-RA,OVC,0.00,WeatherDisplay:10.37,2013-02-05 16:01:00,
2013-02-05 09:06:00,42.7,16.9,30.01,NNW,340,2.3,2.3,35,0.00,-RA,OVC,0.00,WeatherDisplay:10.37,2013-02-05 16:06:00,
2013-02-05 09:11:00,43.2,16.7,30.01,NNW,340,1.1,0.0,34,0.00,-RA,OVC,0.00,WeatherDisplay:10.37,2013-02-05 16:11:00,
2013-02-05 09:16:00,43.6,15.6,30.03,NNW,340,1.1,0.0,32,0.00,-RA,OVC,0.00,WeatherDisplay:10.37,2013-02-05 16:16:00,
2013-02-05 09:21:00,43.8,15.8,30.03,NNW,340,3.5,3.5,32,0.00,-RA,OVC,0.00,WeatherDisplay:10.37,2013-02-05 16:21:00,
2013-02-05 09:26:00,44.0,16.0,30.03,NNW,340,0.0,1.0,32,0.00,-RA,OVC,0.00,WeatherDisplay:10.37,2013-02-05 16:26:00,
2013-02-05 09:31:00,44.2,16.2,30.03,NNW,340,1.1,1.1,32,0.00,-RA,OVC,0.00,WeatherDisplay:10.37,2013-02-05 16:31:00,
2013-02-05 09:36:00,44.3,16.3,30.03,NNW,340,2.3,2.3,32,0.00,-RA,OVC,0.00,WeatherDisplay:10.37,2013-02-05 16:36:00,
2013-02-05 09:41:00,44.3,17.0,30.03,NNW,340,1.1,1.1,33,0.00,-RA,OVC,0.00,WeatherDisplay:10.37,2013-02-05 16:41:00,
2013-02-05 09:46:00,44.6,17.2,30.03,NNW,340,0.0,0.0,33,0.00,-RA,OVC,0.00,WeatherDisplay:10.37,2013-02-05 16:46:00,
2013-02-05 09:51:00,45.0,16.9,30.03,NNW,340,3.5,3.5,32,0.00,-RA,OVC,0.00,WeatherDisplay:10.37,2013-02-05 16:51:00,
2013-02-05 09:56:00,45.3,17.1,30.03,NNW,340,3.5,3.5,32,0.00,-RA,OVC,0.00,WeatherDisplay:10.37,2013-02-05 16:56:00,
2013-02-05 10:01:00,45.4,15.7,30.03,NNE,28,6.9,6.9,30,0.00,-RA,OVC,0.00,WeatherDisplay:10.37,2013-02-05 17:01:00,
2013-02-05 10:06:00,45.1,16.2,30.03,NNE,25,5.8,5.8,31,0.00,-RA,OVC,0.00,WeatherDisplay:10.37,2013-02-05 17:06:00,
2013-02-05 10:11:00,45.3,15.6,30.02,NNE,19,6.0,6.0,30,0.00,-RA,OVC,0.00,WeatherDisplay:10.37,2013-02-05 17:11:00,
2013-02-05 10:16:00,45.5,15.8,30.02,NNE,13,3.5,3.5,30,0.00,-RA,OVC,0.00,WeatherDisplay:10.37,2013-02-05 17:16:00,
2013-02-05 10:21:00,45.9,16.2,30.02,NNE,26,5.8,5.8,30,0.00,-RA,OVC,0.00,WeatherDisplay:10.37,2013-02-05 17:21:00,
2013-02-05 10:26:00,46.4,16.6,30.02,NE,40,5.0,5.0,30,0.00,-RA,OVC,0.00,WeatherDisplay:10.37,2013-02-05 17:26:00,
2013-02-05 10:31:00,46.8,17.0,30.02,NNE,24,8.1,8.1,30,0.00,-RA,OVC,0.00,WeatherDisplay:10.37,2013-02-05 17:31:00,
2013-02-05 10:36:00,47.1,16.4,30.02,NNE,18,4.6,4.6,29,0.00,-RA,OVC,0.00,WeatherDisplay:10.37,2013-02-05 17:36:00,
2013-02-05 10:41:00,47.6,16.9,30.02,NNE,17,3.5,3.5,29,0.00,-RA,OVC,0.00,WeatherDisplay:10.37,2013-02-05 17:41:00,
2013-02-05 10:46:00,48.1,17.3,30.02,NNE,15,3.5,3.5,29,0.00,-RA,OVC,0.00,WeatherDisplay:10.37,2013-02-05 17:46:00,
2013-02-05 10:51:00,48.7,16.2,30.02,NNW,336,8.1,8.1,27,0.00,-RA,OVC,0.00,WeatherDisplay:10.37,2013-02-05 17:51:00,
2013-02-05 10:56:00,49.1,16.5,30.02,NNW,347,4.6,4.6,27,0.00,-RA,OVC,0.00,WeatherDisplay:10.37,2013-02-05 17:56:00,
2013-02-05 11:01:00,49.8,17.1,30.02,North,360,6.9,6.9,27,0.00,-RA,OVC,0.00,WeatherDisplay:10.37,2013-02-05 18:01:00,
2013-02-05 11:06:00,50.6,16.9,30.02,North,355,3.5,3.5,26,0.00,-RA,OVC,0.00,WeatherDisplay:10.37,2013-02-05 18:06:00,
2013-02-05 11:11:00,51.0,15.4,30.02,NW,320,4.6,4.6,24,0.00,-RA,OVC,0.00,WeatherDisplay:10.37,2013-02-05 18:11:00,
2013-02-05 11:16:00,50.9,16.3,30.02,West,275,5.8,5.8,25,0.00,-RA,OVC,0.00,WeatherDisplay:10.37,2013-02-05 18:16:00,
2013-02-05 11:21:00,50.9,15.3,30.02,West,278,3.5,3.5,24,0.00,-RA,OVC,0.00,WeatherDisplay:10.37,2013-02-05 18:21:00,
2013-02-05 11:26:00,51.4,16.7,30.02,West,277,3.5,3.5,25,0.00,-RA,OVC,0.00,WeatherDisplay:10.37,2013-02-05 18:26:00,
2013-02-05 11:31:00,52.2,16.4,30.02,WNW,290,4.6,4.6,24,0.00,-RA,OVC,0.00,WeatherDisplay:10.37,2013-02-05 18:31:00,
2013-02-05 11:36:00,52.3,17.5,30.01,WNW,285,5.8,5.8,25,0.00,-RA,OVC,0.00,WeatherDisplay:10.37,2013-02-05 18:36:00,
2013-02-05 11:41:00,52.6,16.8,30.01,West,261,5.8,5.8,24,0.00,-RA,OVC,0.00,WeatherDisplay:10.37,2013-02-05 18:41:00,
2013-02-05 11:46:00,52.7,16.9,30.01,West,265,5.8,5.8,24,0.00,-RA,OVC,0.00,WeatherDisplay:10.37,2013-02-05 18:46:00,
2013-02-05 11:51:00,52.4,17.6,30.01,West,267,9.2,9.2,25,0.00,-RA,OVC,0.00,WeatherDisplay:10.37,2013-02-05 18:51:00,
2013-02-05 11:56:00,52.3,17.5,30.01,WSW,244,4.6,4.6,25,0.00,-RA,OVC,0.00,WeatherDisplay:10.37,2013-02-05 18:56:00,
2013-02-05 12:01:00,52.5,17.6,30.01,WSW,246,3.5,3.5,25,0.00,-RA,OVC,0.00,WeatherDisplay:10.37,2013-02-05 19:01:00,
2013-02-05 12:06:00,52.9,18.0,30.01,West,259,5.8,5.8,25,0.00,-RA,OVC,0.00,WeatherDisplay:10.37,2013-02-05 19:06:00,
2013-02-05 12:11:00,53.2,17.3,30.01,NW,323,6.9,6.9,24,0.00,-RA,OVC,0.00,WeatherDisplay:10.37,2013-02-05 19:11:00,
2013-02-05 12:16:00,53.5,17.5,29.99,NW,304,2.3,2.3,24,0.00,-RA,OVC,0.00,WeatherDisplay:10.37,2013-02-05 19:16:00,
2013-02-05 12:21:00,53.8,17.8,29.99,West,275,4.6,4.6,24,0.00,-RA,OVC,0.00,WeatherDisplay:10.37,2013-02-05 19:21:00,
2013-02-05 12:26:00,53.7,16.7,29.98,West,263,3.5,3.5,23,0.00,-RA,OVC,0.00,WeatherDisplay:10.37,2013-02-05 19:26:00,
2013-02-05 12:32:00,53.9,16.9,29.98,WNW,283,3.5,3.5,23,0.00,-RA,OVC,0.00,WeatherDisplay:10.37,2013-02-05 19:32:00,
2013-02-05 12:37:00,54.5,16.4,29.98,West,277,3.0,3.1,22,0.00,-RA,OVC,0.00,WeatherDisplay:10.37,2013-02-05 19:37:00,
2013-02-05 12:42:00,54.8,16.6,29.98,WNW,292,4.6,4.6,22,0.00,-RA,OVC,0.00,WeatherDisplay:10.37,2013-02-05 19:42:00,
2013-02-05 12:47:00,55.2,17.0,29.97,West,263,4.6,4.6,22,0.00,-RA,OVC,0.00,WeatherDisplay:10.37,2013-02-05 19:47:00,
2013-02-05 12:52:00,55.7,17.4,29.97,West,265,3.5,3.5,22,0.00,-RA,OVC,0.00,WeatherDisplay:10.37,2013-02-05 19:52:00,
2013-02-05 12:57:00,56.3,16.8,29.97,North,360,7.0,7.0,21,0.00,-RA,OVC,0.00,WeatherDisplay:10.37,2013-02-05 19:57:00,
2013-02-05 13:02:00,56.6,15.9,29.97,North,5,3.5,3.5,20,0.00,-RA,OVC,0.00,WeatherDisplay:10.37,2013-02-05 20:02:00,
2013-02-05 13:07:00,56.9,17.3,29.97,NNW,333,4.6,4.6,21,0.00,-RA,OVC,0.00,WeatherDisplay:10.37,2013-02-05 20:07:00,
2013-02-05 13:12:00,56.8,16.1,29.97,NW,308,8.1,8.1,20,0.00,-RA,OVC,0.00,WeatherDisplay:10.37,2013-02-05 20:12:00,
2013-02-05 13:17:00,57.1,16.3,29.97,West,273,5.0,5.0,20,0.00,-RA,OVC,0.00,WeatherDisplay:10.37,2013-02-05 20:17:00,
2013-02-05 13:22:00,57.1,17.5,29.97,NNW,348,4.6,4.6,21,0.00,-RA,OVC,0.00,WeatherDisplay:10.37,2013-02-05 20:22:00,
2013-02-05 13:27:00,57.8,16.9,29.97,NNW,342,4.6,4.6,20,0.00,-RA,OVC,0.00,WeatherDisplay:10.37,2013-02-05 20:27:00,
2013-02-05 13:32:00,58.0,15.9,29.97,NNW,330,3.5,3.5,19,0.00,-RA,OVC,0.00,WeatherDisplay:10.37,2013-02-05 20:32:00,
2013-02-05 13:37:00,58.6,16.4,29.97,NNW,328,5.8,5.8,19,0.00,-RA,OVC,0.00,WeatherDisplay:10.37,2013-02-05 20:37:00,
2013-02-05 13:42:00,58.7,16.5,29.97,North,5,6.9,6.9,19,0.00,-RA,OVC,0.00,WeatherDisplay:10.37,2013-02-05 20:42:00,
2013-02-05 13:47:00,58.6,16.4,29.97,NNE,30,5.8,5.8,19,0.00,-RA,OVC,0.00,WeatherDisplay:10.37,2013-02-05 20:47:00,
2013-02-05 13:52:00,58.9,16.7,29.97,NNE,28,5.8,5.8,19,0.00,-RA,OVC,0.00,WeatherDisplay:10.37,2013-02-05 20:52:00,
2013-02-05 13:57:00,59.3,18.2,29.97,NNE,21,5.8,5.8,20,0.00,-RA,OVC,0.00,WeatherDisplay:10.37,2013-02-05 20:57:00,
2013-02-05 14:02:00,59.4,17.1,29.97,North,5,4.6,4.6,19,0.00,-RA,OVC,0.00,WeatherDisplay:10.37,2013-02-05 21:02:00,
2013-02-05 14:07:00,59.1,16.8,29.97,NNW,344,2.3,2.3,19,0.00,-RA,OVC,0.00,WeatherDisplay:10.37,2013-02-05 21:07:00,
2013-02-05 14:12:00,59.1,18.0,29.97,NNW,344,2.3,2.3,20,0.00,-RA,OVC,0.00,WeatherDisplay:10.37,2013-02-05 21:12:00,
2013-02-05 14:17:00,59.4,17.1,29.97,North,350,3.5,3.5,19,0.00,-RA,OVC,0.00,WeatherDisplay:10.37,2013-02-05 21:17:00,
2013-02-05 14:22:00,59.8,17.4,29.97,North,351,3.5,3.5,19,0.00,-RA,OVC,0.00,WeatherDisplay:10.37,2013-02-05 21:22:00,
2013-02-05 14:27:00,60.0,16.3,29.97,North,355,2.3,2.3,18,0.00,-RA,OVC,0.00,WeatherDisplay:10.37,2013-02-05 21:27:00,
2013-02-05 14:32:00,59.8,17.4,29.97,NNW,340,3.5,3.5,19,0.00,-RA,OVC,0.00,WeatherDisplay:10.37,2013-02-05 21:32:00,
2013-02-05 14:37:00,59.8,17.4,29.97,NNW,340,1.1,1.1,19,0.00,-RA,OVC,0.00,WeatherDisplay:10.37,2013-02-05 21:37:00,
2013-02-05 14:42:00,60.2,16.5,29.97,North,355,1.0,0.0,18,0.00,-RA,OVC,0.00,WeatherDisplay:10.37,2013-02-05 21:42:00,
2013-02-05 14:47:00,60.5,18.0,29.97,North,355,3.5,3.5,19,0.00,-RA,OVC,0.00,WeatherDisplay:10.37,2013-02-05 21:47:00,
2013-02-05 14:52:00,60.9,17.0,29.97,NE,34,4.6,4.6,18,0.00,-RA,OVC,0.00,WeatherDisplay:10.37,2013-02-05 21:52:00,
2013-02-05 14:57:00,60.9,17.0,29.97,NE,42,3.5,3.5,18,0.00,-RA,OVC,0.00,WeatherDisplay:10.37,2013-02-05 21:57:00,
2013-02-05 15:02:00,60.7,16.9,29.97,NNE,26,3.5,3.5,18,0.00,-RA,OVC,0.00,WeatherDisplay:10.37,2013-02-05 22:02:00,
2013-02-05 15:07:00,60.7,18.1,29.97,NNE,27,3.5,3.5,19,0.00,-RA,OVC,0.00,WeatherDisplay:10.37,2013-02-05 22:07:00,
2013-02-05 15:12:00,60.7,18.1,29.97,NNE,27,3.5,3.5,19,0.00,-RA,OVC,0.00,WeatherDisplay:10.37,2013-02-05 22:12:00,
2013-02-05 15:17:00,60.9,17.0,29.97,NNE,29,3.5,3.5,18,0.00,-RA,OVC,0.00,WeatherDisplay:10.37,2013-02-05 22:17:00,
2013-02-05 15:22:00,60.7,18.1,29.97,North,11,3.5,3.5,19,0.00,-RA,OVC,0.00,WeatherDisplay:10.37,2013-02-05 22:22:00,
2013-02-05 15:27:00,60.4,16.6,29.97,North,5,3.5,3.5,18,0.00,-RA,OVC,0.00,WeatherDisplay:10.37,2013-02-05 22:27:00,
2013-02-05 15:32:00,60.5,18.0,29.97,North,5,2.3,2.3,19,0.00,-RA,OVC,0.00,WeatherDisplay:10.37,2013-02-05 22:32:00,
2013-02-05 15:37:00,60.9,18.3,29.97,North,5,3.5,3.5,19,0.00,-RA,OVC,0.00,WeatherDisplay:10.37,2013-02-05 22:37:00,
2013-02-05 15:42:00,61.0,17.1,29.97,North,5,0.0,0.1,18,0.00,-RA,OVC,0.00,WeatherDisplay:10.37,2013-02-05 22:42:00,
2013-02-05 15:47:00,61.4,17.5,29.97,North,5,2.3,2.3,18,0.00,-RA,OVC,0.00,WeatherDisplay:10.37,2013-02-05 22:47:00,
2013-02-05 15:52:00,61.2,17.3,29.97,NNE,17,2.3,2.3,18,0.00,-RA,OVC,0.00,WeatherDisplay:10.37,2013-02-05 22:52:00,
2013-02-05 15:57:00,61.1,17.2,29.97,NNE,17,1.1,1.1,18,0.00,-RA,OVC,0.00,WeatherDisplay:10.37,2013-02-05 22:57:00,
2013-02-05 16:02:00,61.0,17.1,29.97,NNE,17,4.6,4.6,18,0.00,-RA,OVC,0.00,WeatherDisplay:10.37,2013-02-05 23:02:00,
2013-02-05 16:07:00,60.8,17.0,29.97,NNE,17,2.3,2.3,18,0.00,-RA,OVC,0.00,WeatherDisplay:10.37,2013-02-05 23:07:00,
2013-02-05 16:12:00,60.7,18.1,29.97,NNE,17,0.0,0.0,19,0.00,-RA,OVC,0.00,WeatherDisplay:10.37,2013-02-05 23:12:00,
2013-02-05 16:17:00,60.7,16.9,29.97,NNE,17,2.3,2.3,18,0.00,-RA,OVC,0.00,WeatherDisplay:10.37,2013-02-05 23:17:00,
2013-02-05 16:22:00,60.5,18.0,29.90,NNE,17,3.5,3.5,19,0.00,-RA,OVC,0.00,WeatherDisplay:10.37,2013-02-05 23:22:00,
2013-02-05 16:27:00,60.2,16.5,29.90,NNE,18,5.8,5.8,18,0.00,-RA,OVC,0.00,WeatherDisplay:10.37,2013-02-05 23:27:00,
2013-02-05 16:32:00,59.6,17.2,29.90,NNE,18,3.5,3.5,19,0.00,-RA,OVC,0.00,WeatherDisplay:10.37,2013-02-05 23:32:00,
2013-02-05 16:37:00,59.1,16.8,29.90,NNE,20,5.8,5.8,19,0.00,-RA,OVC,0.00,WeatherDisplay:10.37,2013-02-05 23:37:00,
2013-02-05 16:42:00,58.8,16.6,29.90,NNE,20,2.3,2.3,19,0.00,-RA,OVC,0.00,WeatherDisplay:10.37,2013-02-05 23:42:00,
2013-02-05 16:47:00,58.6,16.4,29.90,NNE,20,3.5,3.5,19,0.00,-RA,OVC,0.00,WeatherDisplay:10.37,2013-02-05 23:47:00,
2013-02-05 16:52:00,58.3,17.3,29.89,NNE,20,1.1,0.0,20,0.00,-RA,OVC,0.00,WeatherDisplay:10.37,2013-02-05 23:52:00,
2013-02-05 16:57:00,57.8,16.9,29.89,North,5,9.2,9.2,20,0.00,-RA,OVC,0.00,WeatherDisplay:10.37,2013-02-05 23:57:00,
2013-02-05 17:02:00,56.9,16.2,29.89,NNE,30,6.9,6.9,20,0.00,-RA,OVC,0.00,WeatherDisplay:10.37,2013-02-06 00:02:00,
2013-02-05 17:07:00,56.0,16.6,29.89,North,360,11.5,11.5,21,0.00,-RA,OVC,0.00,WeatherDisplay:10.37,2013-02-06 00:07:00,
2013-02-05 17:12:00,55.3,16.0,29.89,North,5,5.8,5.8,21,0.00,-RA,OVC,0.00,WeatherDisplay:10.37,2013-02-06 00:12:00,
2013-02-05 17:17:00,54.8,16.6,29.89,North,5,3.5,3.5,22,0.00,-RA,OVC,0.00,WeatherDisplay:10.37,2013-02-06 00:17:00,
2013-02-05 17:22:00,54.3,17.2,29.89,North,5,5.8,5.8,23,0.00,-RA,OVC,0.00,WeatherDisplay:10.37,2013-02-06 00:22:00,
2013-02-05 17:27:00,53.8,16.8,29.89,NNE,14,6.9,6.9,23,0.00,-RA,OVC,0.00,WeatherDisplay:10.37,2013-02-06 00:27:00,
2013-02-05 17:32:00,53.4,16.5,29.89,NNE,17,3.5,3.5,23,0.00,-RA,OVC,0.00,WeatherDisplay:10.37,2013-02-06 00:32:00,
2013-02-05 17:37:00,53.0,17.1,29.89,NNE,13,10.4,10.4,24,0.00,-RA,OVC,0.00,WeatherDisplay:10.37,2013-02-06 00:37:00,
2013-02-05 17:42:00,52.6,17.7,29.89,NNE,17,4.6,4.6,25,0.00,-RA,OVC,0.00,WeatherDisplay:10.37,2013-02-06 00:42:00,
2013-02-05 17:47:00,52.2,17.4,29.89,NNE,16,5.8,5.8,25,0.00,-RA,OVC,0.00,WeatherDisplay:10.37,2013-02-06 00:47:00,
2013-02-05 17:52:00,51.9,17.1,29.89,NNE,15,3.5,3.5,25,0.00,-RA,OVC,0.00,WeatherDisplay:10.37,2013-02-06 00:52:00,
2013-02-05 17:57:00,51.6,17.8,29.89,NNE,16,3.5,3.5,26,0.00,-RA,OVC,0.00,WeatherDisplay:10.37,2013-02-06 00:57:00,
2013-02-05 18:02:00,51.3,17.5,29.89,NNE,19,3.5,3.5,26,0.00,-RA,OVC,0.00,WeatherDisplay:10.37,2013-02-06 01:02:00,
2013-02-05 18:07:00,51.0,17.3,29.89,NNE,12,6.9,6.9,26,0.00,-RA,OVC,0.00,WeatherDisplay:10.37,2013-02-06 01:07:00,
2013-02-05 18:12:00,50.8,17.1,29.89,NNE,31,10.4,10.4,26,0.00,-RA,OVC,0.00,WeatherDisplay:10.37,2013-02-06 01:12:00,
2013-02-05 18:17:00,50.6,17.8,29.89,NNE,31,9.2,9.2,27,0.00,-RA,OVC,0.00,WeatherDisplay:10.37,2013-02-06 01:17:00,
2013-02-05 18:22:00,50.3,17.5,29.89,NNE,20,6.9,6.9,27,0.00,-RA,OVC,0.00,WeatherDisplay:10.37,2013-02-06 01:22:00,
2013-02-05 18:27:00,50.1,17.4,29.89,NNE,19,3.5,3.5,27,0.00,-RA,OVC,0.00,WeatherDisplay:10.37,2013-02-06 01:27:00,
2013-02-05 18:32:00,49.7,17.9,29.90,NNE,32,5.8,5.8,28,0.00,-RA,OVC,0.00,WeatherDisplay:10.37,2013-02-06 01:32:00,
2013-02-05 18:37:00,49.4,17.6,29.90,NNE,30,5.8,5.8,28,0.00,-RA,OVC,0.00,WeatherDisplay:10.37,2013-02-06 01:37:00,
2013-02-05 18:42:00,49.2,17.4,29.90,NNE,30,4.6,4.6,28,0.00,-RA,OVC,0.00,WeatherDisplay:10.37,2013-02-06 01:42:00,
2013-02-05 18:47:00,48.8,17.9,29.90,NE,34,4.6,4.6,29,0.00,-RA,OVC,0.00,WeatherDisplay:10.37,2013-02-06 01:47:00,
2013-02-05 18:52:00,48.5,17.6,29.90,NE,37,3.5,3.5,29,0.00,-RA,OVC,0.00,WeatherDisplay:10.37,2013-02-06 01:52:00,
2013-02-05 18:57:00,48.1,18.1,29.90,NE,36,4.6,4.6,30,0.00,-RA,OVC,0.00,WeatherDisplay:10.37,2013-02-06 01:57:00,
2013-02-05 19:02:00,47.8,17.8,29.90,NE,34,5.0,5.0,30,0.00,-RA,OVC,0.00,WeatherDisplay:10.37,2013-02-06 02:02:00,
2013-02-05 19:07:00,47.4,17.5,29.90,NNE,30,5.8,5.8,30,0.00,-RA,OVC,0.00,WeatherDisplay:10.37,2013-02-06 02:07:00,
2013-02-05 19:12:00,47.1,18.0,29.90,NNE,28,5.8,5.8,31,0.00,-RA,OVC,0.00,WeatherDisplay:10.37,2013-02-06 02:12:00,
2013-02-05 19:17:00,46.8,17.7,29.90,NNE,28,3.5,3.5,31,0.00,-RA,OVC,0.00,WeatherDisplay:10.37,2013-02-06 02:17:00,
2013-02-05 19:22:00,46.4,18.1,29.90,NNE,28,3.5,3.5,32,0.00,-RA,OVC,0.00,WeatherDisplay:10.37,2013-02-06 02:22:00,
2013-02-05 19:27:00,46.1,17.8,29.90,NNE,28,3.0,3.0,32,0.00,-RA,OVC,0.00,WeatherDisplay:10.37,2013-02-06 02:27:00,
2013-02-05 19:32:00,45.7,18.2,29.90,NNE,28,2.3,2.3,33,0.00,-RA,OVC,0.00,WeatherDisplay:10.37,2013-02-06 02:32:00,
2013-02-05 19:37:00,45.4,17.9,29.90,NNE,28,1.1,1.1,33,0.00,-RA,OVC,0.00,WeatherDisplay:10.37,2013-02-06 02:37:00,
2013-02-05 19:42:00,44.9,18.2,29.90,NNE,28,2.3,2.3,34,0.00,-RA,OVC,0.00,WeatherDisplay:10.37,2013-02-06 02:42:00,
2013-02-05 19:47:00,44.6,17.9,29.90,NNE,28,2.3,2.3,34,0.00,-RA,OVC,0.00,WeatherDisplay:10.37,2013-02-06 02:47:00,
2013-02-05 19:52:00,44.2,18.2,29.90,NNE,28,3.5,3.5,35,0.00,-RA,OVC,0.00,WeatherDisplay:10.37,2013-02-06 02:52:00,
2013-02-05 19:57:00,43.9,18.0,29.90,NNE,28,0.0,0.0,35,0.00,-RA,OVC,0.00,WeatherDisplay:10.37,2013-02-06 02:57:00,
2013-02-05 20:02:00,43.4,18.2,29.90,NNE,28,0.0,0.0,36,0.00,-RA,OVC,0.00,WeatherDisplay:10.37,2013-02-06 03:02:00,
2013-02-05 20:07:00,43.1,17.9,29.90,NNE,28,1.1,0.0,36,0.00,-RA,OVC,0.00,WeatherDisplay:10.37,2013-02-06 03:07:00,
2013-02-05 20:12:00,42.8,18.3,29.90,NNE,28,0.0,0.0,37,0.00,-RA,OVC,0.00,WeatherDisplay:10.37,2013-02-06 03:12:00,
2013-02-05 20:17:00,42.5,18.0,29.90,NNE,28,0.0,0.0,37,0.00,-RA,OVC,0.00,WeatherDisplay:10.37,2013-02-06 03:17:00,
2013-02-05 20:22:00,42.4,18.6,29.90,NNE,28,3.5,3.5,38,0.00,-RA,OVC,0.00,WeatherDisplay:10.37,2013-02-06 03:22:00,
2013-02-05 20:27:00,42.2,18.4,29.90,NNE,28,2.3,2.3,38,0.00,-RA,OVC,0.00,WeatherDisplay:10.37,2013-02-06 03:27:00,
2013-02-05 20:32:00,42.0,18.8,29.90,NNE,28,0.0,0.0,39,0.00,-RA,OVC,0.00,WeatherDisplay:10.37,2013-02-06 03:32:00,
2013-02-05 20:37:00,41.8,18.6,29.90,NNE,28,0.0,0.0,39,0.00,-RA,OVC,0.00,WeatherDisplay:10.37,2013-02-06 03:37:00,
2013-02-05 20:42:00,41.4,18.3,29.90,NNE,28,1.1,1.1,39,0.00,-RA,OVC,0.00,WeatherDisplay:10.37,2013-02-06 03:42:00,
2013-02-05 20:47:00,41.0,18.5,29.90,NNE,28,0.0,0.0,40,0.00,-RA,OVC,0.00,WeatherDisplay:10.37,2013-02-06 03:47:00,
2013-02-05 20:52:00,40.7,18.8,29.88,NNE,28,0.0,0.0,41,0.00,-RA,OVC,0.00,WeatherDisplay:10.37,2013-02-06 03:52:00,
2013-02-05 20:57:00,40.5,18.6,29.88,NNE,28,0.0,0.0,41,0.00,-RA,OVC,0.00,WeatherDisplay:10.37,2013-02-06 03:57:00,
2013-02-05 21:02:00,40.0,18.7,29.88,NNE,28,0.0,0.0,42,0.00,-RA,OVC,0.00,WeatherDisplay:10.37,2013-02-06 04:02:00,
2013-02-05 21:07:00,39.5,18.8,29.88,NNE,28,3.5,3.5,43,0.00,-RA,OVC,0.00,WeatherDisplay:10.37,2013-02-06 04:07:00,
2013-02-05 21:12:00,38.9,18.3,29.88,NNE,28,3.5,3.5,43,0.00,-RA,OVC,0.00,WeatherDisplay:10.37,2013-02-06 04:12:00,
2013-02-05 21:17:00,39.1,18.5,29.88,NNE,28,0.0,0.0,43,0.00,-RA,OVC,0.00,WeatherDisplay:10.37,2013-02-06 04:17:00,
2013-02-05 21:22:00,39.2,18.5,29.88,NNE,28,0.0,0.0,43,0.00,-RA,OVC,0.00,WeatherDisplay:10.37,2013-02-06 04:22:00,
2013-02-05 21:27:00,39.0,18.4,29.88,NNE,28,0.0,0.0,43,0.00,-RA,OVC,0.00,WeatherDisplay:10.37,2013-02-06 04:27:00,
2013-02-05 21:32:00,38.9,18.8,29.88,NNE,28,0.0,0.0,44,0.00,-RA,OVC,0.00,WeatherDisplay:10.37,2013-02-06 04:32:00,
2013-02-05 21:37:00,38.5,19.0,29.88,NNE,28,2.3,2.3,45,0.00,-RA,OVC,0.00,WeatherDisplay:10.37,2013-02-06 04:37:00,
2013-02-05 21:42:00,38.0,19.0,29.88,NNE,28,0.0,0.0,46,0.00,-RA,OVC,0.00,WeatherDisplay:10.37,2013-02-06 04:42:00,
2013-02-05 21:47:00,37.9,18.9,29.88,NNE,28,0.0,0.0,46,0.00,-RA,OVC,0.00,WeatherDisplay:10.37,2013-02-06 04:47:00,
2013-02-05 21:52:00,37.9,18.9,29.88,NNE,28,0.0,0.0,46,0.00,-RA,OVC,0.00,WeatherDisplay:10.37,2013-02-06 04:52:00,
2013-02-05 21:57:00,37.9,18.9,29.88,NNE,28,3.5,3.5,46,0.00,-RA,OVC,0.00,WeatherDisplay:10.37,2013-02-06 04:57:00,
2013-02-05 22:00:00,37.8,18.8,29.88,NNE,28,1.1,1.1,46,0.00,-RA,OVC,0.00,WeatherDisplay:10.37,2013-02-06 05:00:00,
2013-02-05 22:05:00,37.5,19.1,29.88,NNE,28,0.0,0.0,47,0.00,-RA,OVC,0.00,WeatherDisplay:10.37,2013-02-06 05:05:00,
2013-02-05 22:10:00,37.2,18.8,29.88,NNE,28,0.0,0.0,47,0.00,-RA,OVC,0.00,WeatherDisplay:10.37,2013-02-06 05:10:00,
2013-02-05 22:15:00,37.1,18.7,29.88,NNE,28,0.0,0.0,47,0.00,-RA,OVC,0.00,WeatherDisplay:10.37,2013-02-06 05:15:00,
2013-02-05 22:20:00,36.8,18.9,29.88,NNE,28,0.0,0.0,48,0.00,-RA,OVC,0.00,WeatherDisplay:10.37,2013-02-06 05:20:00,
2013-02-05 22:25:00,36.6,18.7,29.87,NNE,28,0.0,0.0,48,0.00,-RA,OVC,0.00,WeatherDisplay:10.37,2013-02-06 05:25:00,
2013-02-05 22:30:00,36.6,19.2,29.87,NNE,28,0.0,0.0,49,0.00,-RA,OVC,0.00,WeatherDisplay:10.37,2013-02-06 05:30:00,
2013-02-05 22:35:00,36.4,19.0,29.87,NNE,28,0.0,0.0,49,0.00,-RA,OVC,0.00,WeatherDisplay:10.37,2013-02-06 05:35:00,
2013-02-05 22:40:00,36.2,19.3,29.87,NNE,28,1.0,1.0,50,0.00,-RA,OVC,0.00,WeatherDisplay:10.37,2013-02-06 05:40:00,
2013-02-05 22:45:00,35.9,19.0,29.87,NNE,28,1.1,1.1,50,0.00,-RA,OVC,0.00,WeatherDisplay:10.37,2013-02-06 05:45:00,
2013-02-05 22:50:00,35.6,19.2,29.87,NNE,28,0.0,0.0,51,0.00,-RA,OVC,0.00,WeatherDisplay:10.37,2013-02-06 05:50:00,
2013-02-05 22:55:00,35.3,19.4,29.87,NNE,28,1.1,1.1,52,0.00,-RA,OVC,0.00,WeatherDisplay:10.37,2013-02-06 05:55:00,
2013-02-05 23:00:00,35.2,19.3,29.87,NNE,28,0.0,0.5,52,0.00,-RA,OVC,0.00,WeatherDisplay:10.37,2013-02-06 06:00:00,
2013-02-05 23:05:00,35.1,19.2,29.87,NNE,28,0.0,0.0,52,0.00,-RA,OVC,0.00,WeatherDisplay:10.37,2013-02-06 06:05:00,
2013-02-05 23:10:00,35.1,19.2,29.87,NNE,28,0.0,0.0,52,0.00,-RA,OVC,0.00,WeatherDisplay:10.37,2013-02-06 06:10:00,
2013-02-05 23:15:00,35.2,19.3,29.87,NNE,28,2.3,2.3,52,0.00,-RA,OVC,0.00,WeatherDisplay:10.37,2013-02-06 06:15:00,
2013-02-05 23:20:00,35.2,19.3,29.87,NNE,28,3.5,3.5,52,0.00,-RA,OVC,0.00,WeatherDisplay:10.37,2013-02-06 06:20:00,
2013-02-05 23:25:00,35.4,19.5,29.87,NNE,28,1.1,1.1,52,0.00,-RA,OVC,0.00,WeatherDisplay:10.37,2013-02-06 06:25:00,
2013-02-05 23:30:00,35.4,19.9,29.87,NNE,28,0.0,0.0,53,0.00,-RA,OVC,0.00,WeatherDisplay:10.37,2013-02-06 06:30:00,
2013-02-05 23:35:00,35.3,19.9,29.87,NNE,28,0.0,0.0,53,0.00,-RA,OVC,0.00,WeatherDisplay:10.37,2013-02-06 06:35:00,
2013-02-05 23:40:00,35.6,20.1,29.87,NNE,28,0.0,0.0,53,0.00,-RA,OVC,0.00,WeatherDisplay:10.37,2013-02-06 06:40:00,
2013-02-05 23:45:00,36.0,20.5,29.87,NNE,28,0.0,0.0,53,0.00,-RA,OVC,0.00,WeatherDisplay:10.37,2013-02-06 06:45:00,
2013-02-05 23:50:00,36.2,20.2,29.87,NNE,28,1.1,1.1,52,0.00,-RA,OVC,0.00,WeatherDisplay:10.37,2013-02-06 06:50:00,
2013-02-05 23:55:00,36.3,20.3,29.86,NNE,28,0.0,0.0,52,0.00,-RA,OVC,0.00,WeatherDisplay:10.37,2013-02-06 06:55:00,